AKDT,Max TemperatureF,Mean TemperatureF,Min TemperatureF,Max Dew PointF,MeanDew PointF,Min DewpointF,Max Humidity, Mean Humidity, Min Humidity, Max Sea Level PressureIn, Mean Sea Level PressureIn, Min Sea Level PressureIn, Max VisibilityMiles, Mean VisibilityMiles, Min VisibilityMiles, Max Wind SpeedMPH, Mean Wind SpeedMPH, Max Gust SpeedMPH,PrecipitationIn, CloudCover, Events, WindDirDegrees
2013-7-1,60,56,53,55,54,52,100,90,77,29.99,29.95,29.92,10,9,2,9,2,,0.00,8,,258
2013-7-2,57,55,53,54,51,48,100,85,72,30.09,30.04,29.98,10,10,7,17,8,22,0.00,8,,129
2013-7-3,57,55,53,54,51,48,94,87,77,30.14,30.11,30.08,10,9,3,12,7,20,0.00,8,,172
2013-7-4,,,,,,,,,,30.22,30.18,30.14,10,10,3,15,4,20,0.00,7,,210
2013-7-5,57,55,53,52,49,48,88,82,77,30.23,30.22,30.21,10,10,8,7,4,,0.00,8,,195
2013-7-6,62,56,51,48,48,46,88,78,59,30.21,30.14,30.08,10,10,0,10,3,,0.00,7,,212
2013-7-7,60,56,53,52,51,48,94,86,63,30.09,30.01,29.87,10,10,4,9,2,,0.00,8,,134
2013-7-8,,,,,,,,,,29.99,29.88,29.82,10,10,8,15,9,22,0.00,8,,150
2013-7-9,57,54,51,50,48,46,94,79,67,30.05,30.03,29.99,10,10,10,15,7,20,0.00,8,,132
2013-7-10,62,56,50,50,48,46,94,81,59,29.99,29.95,29.91,10,10,10,14,5,18,0.00,4,,282
2013-7-11,55,53,51,48,48,46,88,85,77,29.95,29.90,29.88,10,10,10,14,3,21,0.00,7,,203
2013-7-12,60,58,57,54,52,50,88,77,72,30.07,29.99,29.95,10,10,10,15,4,18,0.00,7,,191
2013-7-13,64,57,50,54,51,46,88,71,56,30.25,30.14,30.07,10,10,10,9,2,,0.00,4,,178
2013-7-14,64,54,44,54,48,43,100,81,59,30.30,30.29,30.26,10,9,0,15,4,21,0.00,2,,215
2013-7-15,55,52,48,50,48,46,93,86,77,30.30,30.25,30.19,10,10,10,10,3,,0.00,4,,192
2013-7-16,69,58,46,55,51,45,100,81,60,30.21,30.13,30.05,10,8,0,13,3,,0.00,1,,213
2013-7-17,66,58,51,55,52,48,94,82,64,30.06,30.03,30.00,10,10,8,15,3,18,0.00,4,,214
2013-7-18,66,60,55,55,53,52,88,73,64,30.24,30.17,30.06,10,10,4,9,4,,0.00,8,,173
2013-7-19,62,58,55,55,54,52,94,87,72,30.24,30.18,30.12,10,8,2,8,2,,0.00,8,,221
2013-7-20,62,58,55,55,55,54,100,90,77,30.12,30.03,29.94,10,7,0,7,2,,0.00,8,,224
2013-7-21,62,58,55,57,54,52,94,89,77,29.97,29.93,29.91,10,9,2,10,2,,0.00,8,,215
2013-7-22,64,58,53,57,54,52,94,86,68,30.08,30.04,29.97,10,10,4,8,1,,0.00,6,,235
2013-7-23,71,62,53,57,54,34,94,79,34,30.09,30.05,30.02,10,10,1,8,1,,0.00,7,,143
2013-7-24,62,58,55,61,56,55,100,93,82,30.09,30.08,30.07,10,9,1,7,2,,0.00,8,,167
2013-7-25,64,58,53,55,54,52,100,86,68,30.19,30.14,30.09,10,7,0,12,3,,0.00,8,,234
2013-7-26,62,58,55,55,54,52,94,83,68,30.31,30.25,30.19,10,10,8,6,1,,0.00,8,,277
2013-7-27,66,60,55,55,54,52,94,82,64,30.32,30.28,30.23,10,10,10,13,3,16,0.00,7,,231
2013-7-28,75,62,48,57,53,46,100,77,44,30.24,30.18,30.11,10,8,0,8,2,,0.00,2,,219
2013-7-29,71,60,48,57,53,48,100,82,53,30.15,30.13,30.09,10,8,0,13,3,17,0.00,2,,209
2013-7-30,66,58,51,55,53,48,94,81,64,30.21,30.18,30.14,10,10,10,14,4,18,0.00,2,,211
2013-7-31,66,60,53,55,53,50,94,82,64,30.22,30.18,30.11,10,10,10,13,3,17,0.00,4,,226